Other Surface Observations
Issued by NWS Upton, NY

Current Version | Previous Version | Text Only | Print | Product List | Glossary Off
Versions: 1 2 3 4 5 6 7 8 9 10 11 12 13 14 15 16 17 18 19 20 21 22 23 24 25 26 27 28 29 30 31 32 33 34 35 36 37 38 39 40 41 42 43 44 45 46 47 48 49 50

000
SXUS51 KOKX 240757
OSOOKX
NEW YORK CITY METROPOLITAN AREA WEATHER ROUNDUP
National Weather Service New York NY
300 AM EST FRI NOV 24 2017

CITY           SKY/WX    TMP DP  RH WIND       PRES   REMARKS
Central Park   CLEAR     36  21  54 W5        30.06R WCI  32
LaGuardia APRT CLEAR     39  22  50 W6        30.04R WCI  35
Kennedy INTL   CLEAR     36  24  62 W7        30.05S WCI  30
Newark Liberty CLEAR     33  21  61 W3        30.05R
Teterboro APRT CLEAR     30  22  72 CALM      30.03S
Bronx Bot Gard   N/A     36  21  55 NW1       30.05F
Bronx Lehman C   N/A     36  32  87 W5          N/A  WCI  32
Queens College   N/A     37  32  81 NW5         N/A  WCI  34
Breezy Point     N/A     36 N/A N/A W6          N/A  WCI  31
Brooklyn Coll    N/A     37  32  81 W5          N/A  WCI  34
Staten Island    N/A     32  32 100 SW2         N/A

>>>>>>>>>>>>>>>>>>>>>>>>>>>>>>>>> KEY <<<<<<<<<<<<<<<<<<<<<<<<<<<<<<<
> SKY/WX - SKY CONDITION/PRESENT    : R : WCI - WIND CHILL INDEX    <
>          WEATHER                  : E : VSB - VISIBILITY IN MILES <
> TMP    - TEMPERATURE IN DEG F     : M : HX  - HEAT INDEX          <
> DP     - DEW POINT TEMPERATURE    : A : TC  - TEMPERATURE IN      <
> RH     - RELATIVE HUMIDITY        : R :       CELSIUS             <
> WIND   - DIRECTION/SPEED (MPH)    : K : VRB - VARIABLE WIND  DIR  <
> PRES   - PRESSURE (IN HG)         : S :                           <
>>>>>>>>>>>>>>>>>>>>>>>>>>>>>>>>> KEY <<<<<<<<<<<<<<<<<<<<<<<<<<<<<<<




USA.gov is the U.S. government's official web portal to all federal, state and local government web resources and services.